Home   Weather   Montreux   Past weeks

Flag for Switzerland Past Weather in Montreux, Vaud, Switzerland — Yesterday and Last 2 Weeks

Now
56 °F

Scattered clouds.


Feels Like: 53 °F
Forecast: 40 / 49 °F
Wind: 10 mph from Northwest

Location: Aigle

Current Time: Feb 22, 2017 at 4:56:16 pm

Latest Report: Feb 22, 2017 at 4:00 pm


Visibility: 19 mi

Pressure: 30.07 "Hg

Humidity: 61%

Dew Point: 43 °F

Location of MontreuxLocation

Past Weather in Montreux — Graph

°F

Montreux Temperature Yesterday

Maximum temperature yesterday: 50 °F (at 4:00 pm)
Minimum temperature yesterday: 40 °F (at 11:00 pm)
Average temperature yesterday: 45 °F

High & Low Weather Summary for the Past Weeks

 TemperatureHumidityPressure
High56 °F (Feb 22, 3:00 pm)100% (Feb 17, 10:00 pm)30.65 "Hg (Feb 17, 10:00 pm)
Low29 °F (Feb 19, 4:00 am)39% (Feb 12, 12:00 am)30.03 "Hg (Feb 8, 5:00 am)
Average39 °F83%30.28 "Hg
* Reported Feb 7 3:00 pm — Feb 22 3:00 pm, Montreux, Weather by CustomWeather, © 2017

Note: Actual official high and low records may vary slightly from our data, if they occured in-between our weather recording intervals... More about our weather records

Advertising

Montreux Weather History for the Previous 24 Hours

Scroll right to see more
 ConditionsComfort  
Time TempWeatherWind HumidityBarometerVisibility
3:00 pm
Wed, Feb 22
56 °FRefreshingly cool.7 mph58%30.08 "HgN/A
2:00 pm55 °FCool.8 mph60%30.11 "HgN/A
1:00 pm55 °FScattered clouds.12 mph67%30.12 "Hg16 mi
12:00 pm54 °FCool.7 mph65%30.14 "HgN/A
11:00 am52 °FCool.2 mph74%30.16 "HgN/A
10:00 am46 °FPartly sunny.1 mph83%30.19 "Hg12 mi
9:00 am41 °FQuite cool.1 mph92%30.20 "HgN/A
8:00 am35 °FChilly.2 mph97%30.20 "HgN/A
7:00 am36 °FPassing clouds.2 mph98%30.20 "Hg19 mi
6:00 am39 °FChilly.No wind97%30.18 "HgN/A
5:00 am40 °FChilly.2 mph94%30.19 "HgN/A
4:00 am38 °FClear.2 mph97%30.20 "Hg14 mi
3:00 am40 °FQuite cool.2 mph94%30.19 "HgN/A
2:00 am42 °FQuite cool.2 mph94%30.21 "HgN/A
1:00 am42 °FQuite cool.2 mph93%30.22 "HgN/A
12:00 am41 °FQuite cool.2 mph93%30.22 "HgN/A
11:00 pm
Tue, Feb 21
40 °FQuite cool.1 mph93%30.22 "HgN/A
10:00 pm41 °FQuite cool.1 mph96%30.23 "HgN/A
9:00 pm43 °FQuite cool.2 mph91%30.22 "HgN/A
8:00 pm45 °FCool.1 mph88%30.21 "HgN/A
7:00 pm47 °FPassing clouds.1 mph80%30.21 "Hg12 mi
6:00 pm49 °FCool.2 mph76%30.21 "HgN/A
5:00 pm50 °FCool.No wind72%30.21 "HgN/A
4:00 pm50 °FOvercast.2 mph68%30.20 "Hg9 mi
Weather by CustomWeather, © 2017

See weather overviewHow to use our weather pages